Tracking 27420 objects as of 10-Jun-2023
HD Live streaming from Space Station
objects crossing your sky now

ONEWEB-0578

Track ONEWEB-0578 now!
10-day predictions
ONEWEB-0578 is classified as:


NORAD ID: 56067
Int'l Code: 2023-043X
Perigee: 606.1 km
Apogee: 613.5 km
Inclination: 87.0 °
Period: 96.7 minutes
Semi major axis: 6980 km
RCS: Unknown
Launch date: March 26, 2023
Source: United Kingdom (UK)
Launch site: SRIHARIKOTA (SRI)
Your satellite tracking list
Your tracking list is empty




NASA's NSSDC Master Catalog

Two Line Element Set (TLE):
1 56067U 23043X   23161.29173004  .00003279  00000-0  35028-3 0  9997
2 56067  86.9929 114.4523 0005310  60.8602 299.3156 14.88497495 11477
Source of the keplerian elements: AFSPC